H1 CPF 2 NER 2024 5 2 9 123 01 glonass146 H2 2216101 9146 54377 2024 5 2 0 0 0 2024 5 5 23 45 0 900 1 1 0 0 0 1 H9 10 0 60432 0.00000 0 10201154.534 -10246886.932 -21014564.373 10 0 60432 900.00000 0 12691375.032 -10486001.085 -19488470.338 10 0 60432 1800.00000 0 14947982.193 -10878361.725 -17584016.249 10 0 60432 2700.00000 0 16919384.766 -11383992.953 -15338275.446 10 0 60432 3600.00000 0 18564095.092 -11955088.922 -12794917.035 10 0 60432 4500.00000 0 19852236.950 -12538164.643 -10003354.758 10 0 60432 5400.00000 0 20766578.216 -13076458.444 -7017786.530 10 0 60432 6300.00000 0 21303046.892 -13512484.620 -3896143.245 10 0 60432 7200.00000 0 21470710.429 -13790628.607 -698967.195 10 0 60432 8100.00000 0 21291220.776 -13859675.394 2511758.274 10 0 60432 9000.00000 0 20797749.472 -13675164.629 5673805.450 10 0 60432 9900.00000 0 20033458.492 -13201473.309 8725902.258 10 0 60432 10800.00000 0 19049571.810 -12413538.436 11608912.686 10 0 60432 11700.00000 0 17903128.692 -11298146.871 14266975.295 10 0 60432 12600.00000 0 16654513.105 -9854737.746 16648578.255 10 0 60432 13500.00000 0 15364862.551 -8095682.976 18707550.783 10 0 60432 14400.00000 0 14093464.504 -6046033.003 20403952.480 10 0 60432 15300.00000 0 12895248.943 -3742736.937 21704843.993 10 0 60432 16200.00000 0 11818481.398 -1233367.926 22584924.664 10 0 60432 17100.00000 0 10902752.519 1425595.069 23027025.191 10 0 60432 18000.00000 0 10177347.961 4170859.599 23022445.889 10 0 60432 18900.00000 0 9660066.685 6934701.150 22571133.783 10 0 60432 19800.00000 0 9356537.235 9647536.544 21681694.589 10 0 60432 20700.00000 0 9260061.049 12240583.945 20371238.513 10 0 60432 21600.00000 0 9351989.925 14648500.105 18665061.743 10 0 60432 22500.00000 0 9602622.505 16811885.935 16596168.576 10 0 60432 23400.00000 0 9972582.786 18679556.416 14204642.187 10 0 60432 24300.00000 0 10414623.200 20210480.137 11536875.074 10 0 60432 25200.00000 0 10875776.585 21375307.155 8644673.199 10 0 60432 26100.00000 0 11299766.171 22157420.743 5584250.694 10 0 60432 27000.00000 0 11629571.322 22553468.408 2415134.509 10 0 60432 27900.00000 0 11810039.625 22573349.540 -800999.410 10 0 60432 28800.00000 0 11790433.576 22239660.030 -4001535.026 10 0 60432 29700.00000 0 11526802.499 21586617.433 -7124145.654 10 0 60432 30600.00000 0 10984077.641 20658512.481 -10108018.804 10 0 60432 31500.00000 0 10137800.079 19507753.086 -12895051.210 10 0 60432 32400.00000 0 8975406.778 18192584.373 -15430989.603 10 0 60432 33300.00000 0 7497019.106 16774582.068 -17666494.014 10 0 60432 34200.00000 0 5715699.406 15316026.036 -19558102.174 10 0 60432 35100.00000 0 3657163.987 13877265.570 -21069075.943 10 0 60432 36000.00000 0 1358963.998 12514187.960 -22170113.357 10 0 60432 36900.00000 0 -1130831.828 11275897.062 -22839912.784 10 0 60432 37800.00000 0 -3755397.639 10202699.220 -23065578.945 10 0 60432 38700.00000 0 -6451280.799 9324480.455 -22842863.679 10 0 60432 39600.00000 0 -9150813.362 8659541.989 -22176237.725 10 0 60432 40500.00000 0 -11784704.522 8213941.628 -21078792.980 10 0 60432 41400.00000 0 -14284706.569 7981367.059 -19571977.938 10 0 60432 42300.00000 0 -16586243.993 7943544.779 -17685172.069 10 0 60432 43200.00000 0 -18630897.179 8071165.905 -15455107.905 10 0 60432 44100.00000 0 -20368638.345 8325288.492 -12925152.300 10 0 60432 45000.00000 0 -21759727.654 8659156.241 -10144461.045 10 0 60432 45900.00000 0 -22776191.895 9020356.033 -7167023.273 10 0 60432 46800.00000 0 -23402825.324 9353222.825 -4050614.184 10 0 60432 47700.00000 0 -23637672.212 9601390.116 -855676.339 10 0 60432 48600.00000 0 -23491972.174 9710378.264 2355848.894 10 0 60432 49500.00000 0 -22989571.684 9630111.444 5521717.333 10 0 60432 50400.00000 0 -22165827.441 9317257.158 8580582.377 10 0 60432 51300.00000 0 -21066048.147 8737289.694 11473176.943 10 0 60432 52200.00000 0 -19743540.353 7866190.519 14143454.516 10 0 60432 53100.00000 0 -18257340.338 6691713.746 16539667.702 10 0 60432 54000.00000 0 -16669726.660 5214162.859 18615364.131 10 0 60432 54900.00000 0 -15043617.081 3446645.137 20330281.087 10 0 60432 55800.00000 0 -13439958.088 1414791.828 21651122.236 10 0 60432 56700.00000 0 -11915215.367 -844045.900 22552201.976 10 0 60432 57600.00000 0 -10519069.363 -3282093.602 23015945.374 10 0 60432 58500.00000 0 -9292411.560 -5842890.820 23033234.093 10 0 60432 59400.00000 0 -8265724.704 -8463398.750 22603591.463 10 0 60432 60300.00000 0 -7457914.409 -11076392.666 21735202.595 10 0 60432 61200.00000 0 -6875641.011 -13613041.325 20444768.299 10 0 60432 62100.00000 0 -6513179.839 -16005567.480 18757194.565 10 0 60432 63000.00000 0 -6352816.113 -18189879.750 16705122.370 10 0 60432 63900.00000 0 -6365758.320 -20108066.642 14328305.664 10 0 60432 64800.00000 0 -6513532.046 -21710648.769 11672848.427 10 0 60432 65700.00000 0 -6749795.752 -22958494.809 8790314.669 10 0 60432 66600.00000 0 -7022501.849 -23824320.416 5736728.082 10 0 60432 67500.00000 0 -7276311.368 -24293706.518 2571480.618 10 0 60432 68400.00000 0 -7455159.317 -24365593.565 -643828.518 10 0 60432 69300.00000 0 -7504860.976 -24052230.410 -3846600.168 10 0 60432 70200.00000 0 -7375647.321 -23378579.740 -6974464.292 10 0 60432 71100.00000 0 -7024520.524 -22381205.219 -9966505.670 10 0 60432 72000.00000 0 -6417328.080 -21106687.695 -12764461.024 10 0 60432 72900.00000 0 -5530466.118 -19609637.976 -15313863.039 10 0 60432 73800.00000 0 -4352138.396 -17950390.857 -17565107.991 10 0 60432 74700.00000 0 -2883116.538 -16192478.531 -19474425.465 10 0 60432 75600.00000 0 -1136968.492 -14399990.611 -21004730.960 10 0 60432 76500.00000 0 860255.149 -12634932.404 -22126344.847 10 0 60432 77400.00000 0 3070864.289 -10954692.769 -22817564.028 10 0 60432 78300.00000 0 5446866.879 -9409727.661 -23065075.870 10 0 60432 79200.00000 0 7931745.170 -8041555.934 -22864207.183 10 0 60432 80100.00000 0 10462596.606 -6881150.401 -22219004.294 10 0 60432 81000.00000 0 12972550.238 -5947790.129 -21142143.550 10 0 60432 81900.00000 0 15393358.292 -5248420.408 -19654674.775 10 0 60432 82800.00000 0 17658055.270 -4777545.354 -17785603.300 10 0 60432 83700.00000 0 19703574.475 -4517655.777 -15571319.159 10 0 60432 84600.00000 0 21473213.634 -4440172.567 -13054884.857 10 0 60432 85500.00000 0 22918847.771 -4506864.293 -10285195.708 10 0 60433 0.00000 0 24002797.983 -4671678.074 -7316029.424 10 0 60433 900.00000 0 24699279.656 -4882905.628 -4205001.704 10 0 60433 1800.00000 0 24995369.469 -5085592.296 -1012452.105 10 0 60433 2700.00000 0 24891453.610 -5224087.261 2199723.657 10 0 60433 3600.00000 0 24401137.931 -5244626.981 5369268.599 10 0 60433 4500.00000 0 23550625.320 -5097842.828 8434765.159 10 0 60433 5400.00000 0 22377586.791 -4741087.195 11336818.497 10 0 60433 6300.00000 0 20929573.898 -4140479.984 14019199.979 10 0 60433 7200.00000 0 19262038.854 -3272589.111 16429929.199 10 0 60433 8100.00000 0 17436044.954 -2125673.925 18522274.294 10 0 60433 9000.00000 0 15515762.440 -700438.548 20255651.861 10 0 60433 9900.00000 0 13565853.717 989737.505 21596409.730 10 0 60433 10800.00000 0 11648856.158 2919102.570 22518478.030 10 0 60433 11700.00000 0 9822670.785 5050359.045 23003876.371 10 0 60433 12600.00000 0 8138260.692 7335980.075 23043067.459 10 0 60433 13500.00000 0 6637654.444 9719963.937 22635150.148 10 0 60433 14400.00000 0 5352337.181 12139955.168 21787887.680 10 0 60433 15300.00000 0 4302096.276 14529645.968 20517569.776 10 0 60433 16200.00000 0 3494369.648 16821359.493 18848710.137 10 0 60433 17100.00000 0 2924124.078 18948708.598 16813583.998 10 0 60433 18000.00000 0 2574268.822 20849219.782 14451613.396 10 0 60433 18900.00000 0 2416587.322 22466813.002 11808610.914 10 0 60433 19800.00000 0 2413147.943 23754033.381 8935895.580 10 0 60433 20700.00000 0 2518134.159 24673940.695 5889297.541 10 0 60433 21600.00000 0 2680016.563 25201576.532 2728070.626 10 0 60433 22500.00000 0 2843974.148 25324946.551 -486265.792 10 0 60433 23400.00000 0 2954461.334 25045475.685 -3691132.406 10 0 60433 24300.00000 0 2957810.652 24377916.467 -6824118.596 10 0 60433 25200.00000 0 2804759.262 23349714.043 -9824208.925 10 0 60433 26100.00000 0 2452790.566 21999854.655 -12632982.295 10 0 60433 27000.00000 0 1868190.109 20377246.483 -15195759.166 10 0 60433 27900.00000 0 1027727.213 18538701.660 -17462673.520 10 0 60433 28800.00000 0 -80110.037 16546605.209 -19389647.900 10 0 60433 29700.00000 0 -1454379.663 14466369.671 -20939252.219 10 0 60433 30600.00000 0 -3081482.309 12363783.006 -22081429.643 10 0 60433 31500.00000 0 -4935498.492 10302361.407 -22794075.769 10 0 60433 32400.00000 0 -6979052.762 8340817.985 -23063460.477 10 0 60433 33300.00000 0 -9164668.802 6530752.846 -22884485.082 10 0 60433 34200.00000 0 -11436558.831 4914660.344 -22260770.683 10 0 60433 35100.00000 0 -13732772.687 3524335.539 -21204576.899 10 0 60433 36000.00000 0 -15987617.018 2379744.810 -19736553.328 10 0 60433 36900.00000 0 -18134243.901 1488405.985 -17885329.258 10 0 60433 37800.00000 0 -20107301.282 845301.863 -15686950.063 10 0 60433 38700.00000 0 -21845535.210 433328.696 -13184171.521 10 0 60433 39600.00000 0 -23294235.892 224258.874 -10425626.001 10 0 60433 40500.00000 0 -24407426.124 180175.655 -7464876.714 10 0 60433 41400.00000 0 -25149701.716 255318.109 -4359378.422 10 0 60433 42300.00000 0 -25497647.642 398257.549 -1169364.710 10 0 60433 43200.00000 0 -25440771.457 554312.943 2043316.759 10 0 60433 44100.00000 0 -24981915.888 668102.942 5216398.563 10 0 60433 45000.00000 0 -24137133.788 686126.662 8288394.468 10 0 60433 45900.00000 0 -22935031.262 559264.292 11199784.098 10 0 60433 46800.00000 0 -21415606.629 245092.109 13894158.833 10 0 60433 47700.00000 0 -19628633.684 -290085.695 16319307.241 10 0 60433 48600.00000 0 -17631656.521 -1069574.115 18428219.746 10 0 60433 49500.00000 0 -15487679.034 -2105063.711 20179993.759 10 0 60433 50400.00000 0 -13262644.685 -3395898.441 21540622.436 10 0 60433 51300.00000 0 -11022810.615 -4928866.792 22483652.425 10 0 60433 52200.00000 0 -8832124.394 -6678526.448 22990698.277 10 0 60433 53100.00000 0 -6749711.621 -8608050.761 23051803.746 10 0 60433 54000.00000 0 -4827577.971 -10670563.658 22665642.840 10 0 60433 54900.00000 0 -3108620.599 -12810909.386 21839556.238 10 0 60433 55800.00000 0 -1625031.171 -14967785.248 20589421.564 10 0 60433 56700.00000 0 -397156.785 -17076150.110 18939358.960 10 0 60433 57600.00000 0 567133.823 -19069809.578 16921276.392 10 0 60433 58500.00000 0 1272552.244 -20884070.733 14574262.233 10 0 60433 59400.00000 0 1735956.217 -22458355.832 11943835.706 10 0 60433 60300.00000 0 1985397.539 -23738665.441 9081068.735 10 0 60433 61200.00000 0 2058692.226 -24679787.110 6041595.650 10 0 60433 62100.00000 0 2001573.611 -25247155.990 2884529.792 10 0 60433 63000.00000 0 1865507.018 -25418288.054 -328691.724 10 0 60433 63900.00000 0 1705259.406 -25183724.481 -3535511.917 10 0 60433 64800.00000 0 1576328.158 -24547446.447 -6673482.087 10 0 60433 65700.00000 0 1532339.412 -23526742.083 -9681489.102 10 0 60433 66600.00000 0 1622527.795 -22151530.830 -12500956.542 10 0 60433 67500.00000 0 1889405.961 -20463173.602 -15076995.110 10 0 60433 68400.00000 0 2366724.137 -18512819.114 -17359478.845 10 0 60433 69300.00000 0 3077807.295 -16359356.488 -19304025.404 10 0 60433 70200.00000 0 4034341.331 -14067060.744 -20872861.000 10 0 60433 71100.00000 0 5235660.207 -11703030.571 -22035553.134 10 0 60433 72000.00000 0 6668564.648 -9334526.178 -22769597.220 10 0 60433 72900.00000 0 8307680.307 -7026318.744 -23060846.329 10 0 60433 73800.00000 0 10116340.496 -4838162.007 -22903776.524 10 0 60433 74700.00000 0 12047956.510 -2822490.913 -22301583.498 10 0 60433 75600.00000 0 14047818.148 -1022442.290 -21266109.553 10 0 60433 76500.00000 0 16055249.162 529721.396 -19817603.118 10 0 60433 77400.00000 0 18006027.574 1813721.190 -17984316.132 10 0 60433 78300.00000 0 19834969.924 2821859.436 -15801947.635 10 0 60433 79200.00000 0 21478571.778 3559083.384 -13312944.654 10 0 60433 80100.00000 0 22877594.494 4042514.058 -10565674.199 10 0 60433 81000.00000 0 23979490.650 4300462.164 -7613482.521 10 0 60433 81900.00000 0 24740567.309 4370974.143 -4513659.867 10 0 60433 82800.00000 0 25127797.180 4299970.928 -1326330.814 10 0 60433 83700.00000 0 25120202.578 4139058.883 1886708.413 10 0 60433 84600.00000 0 24709754.599 3943105.866 5063183.331 10 0 60433 85500.00000 0 23901750.423 3767685.085 8141542.328 10 0 60434 0.00000 0 22714653.526 3666494.741 11062142.317 10 0 60434 900.00000 0 21179402.643 3688862.171 13768397.994 10 0 60434 1800.00000 0 19338219.963 3877437.761 16207869.084 10 0 60434 2700.00000 0 17242965.780 4266175.528 18333270.367 10 0 60434 3600.00000 0 14953109.036 4878685.696 20103381.755 10 0 60434 4500.00000 0 12533396.891 5727028.824 21483843.031 10 0 60434 5400.00000 0 10051319.352 6811002.886 22447818.246 10 0 60434 6300.00000 0 7574473.222 8117954.324 22976517.359 10 0 60434 7200.00000 0 5167933.802 9623122.465 23059565.195 10 0 60434 8100.00000 0 2891742.439 11290504.624 22695210.469 10 0 60434 9000.00000 0 798613.366 13074207.699 21890370.358 10 0 60434 9900.00000 0 -1068045.537 14920231.687 20660508.973 10 0 60434 10800.00000 0 -2675716.202 16768612.409 19029351.016 10 0 60434 11700.00000 0 -4003892.400 18555835.409 17028434.892 10 0 60434 12600.00000 0 -5044693.538 20217421.108 14696512.681 10 0 60434 13500.00000 0 -5802944.619 21690573.583 12078807.347 10 0 60434 14400.00000 0 -6295719.007 22916781.966 9226140.619 10 0 60434 15300.00000 0 -6551363.298 23844264.798 6193947.812 10 0 60434 16200.00000 0 -6608045.670 24430153.713 3041198.524 10 0 60434 17100.00000 0 -6511889.504 24642323.417 -170755.636 10 0 60434 18000.00000 0 -6314771.979 24460789.537 -3379383.179 10 0 60434 18900.00000 0 -6071881.957 23878614.171 -6522200.351 10 0 60434 19800.00000 0 -5839141.907 22902279.868 -9537999.124 10 0 60434 20700.00000 0 -5670604.676 21551515.441 -12368050.275 10 0 60434 21600.00000 0 -5615936.889 19858580.509 -14957256.916 10 0 60434 22500.00000 0 -5718097.119 17867038.749 -17255234.927 10 0 60434 23400.00000 0 -6011308.336 15630071.638 -19217298.484 10 0 60434 24300.00000 0 -6519411.438 13208403.872 -20805331.099 10 0 60434 25200.00000 0 -7254670.128 10667927.889 -21988525.230 10 0 60434 26100.00000 0 -8217078.002 8077127.355 -22743976.353 10 0 60434 27000.00000 0 -9394197.212 5504407.528 -23057120.602 10 0 60434 27900.00000 0 -10761535.485 3015443.833 -22922008.253 10 0 60434 28800.00000 0 -12283445.531 670658.792 -22341408.652 10 0 60434 29700.00000 0 -13914508.901 -1477068.420 -21326745.427 10 0 60434 30600.00000 0 -15601346.117 -3384365.661 -19897864.056 10 0 60434 31500.00000 0 -17284777.125 -5018924.517 -18082636.980 10 0 60434 32400.00000 0 -18902241.582 -6360587.051 -15916414.437 10 0 60434 33300.00000 0 -20390377.746 -7401919.360 -13441331.999 10 0 60434 34200.00000 0 -21687652.149 -8148250.071 -10705488.479 10 0 60434 35100.00000 0 -22736930.288 -8617174.425 -7762010.261 10 0 60434 36000.00000 0 -23487881.043 -8837546.602 -4668020.197 10 0 60434 36900.00000 0 -23899114.469 -8848004.340 -1483531.065 10 0 60434 37800.00000 0 -23939963.818 -8695089.221 1729715.077 10 0 60434 38700.00000 0 -23591837.423 -8431042.743 4909439.315 10 0 60434 39600.00000 0 -22849084.186 -8111371.735 7994027.135 10 0 60434 40500.00000 0 -21719336.505 -7792285.982 10923715.592 10 0 60434 41400.00000 0 -20223316.278 -7528116.172 13641743.837 10 0 60434 42300.00000 0 -18394111.817 -7368820.811 16095445.217 10 0 60434 43200.00000 0 -16275955.233 -7357686.943 18237260.533 10 0 60434 44100.00000 0 -13922550.566 -7529321.345 20025653.515 10 0 60434 45000.00000 0 -11395021.249 -7908016.705 21425911.496 10 0 60434 45900.00000 0 -8759561.102 -8506561.771 22410816.452 10 0 60434 46800.00000 0 -6084885.134 -9325546.051 22961173.853 10 0 60434 47700.00000 0 -3439584.710 -10353189.268 23066189.304 10 0 60434 48600.00000 0 -889495.537 -11565704.072 22723685.577 10 0 60434 49500.00000 0 1504813.396 -12928178.466 21940155.399 10 0 60434 50400.00000 0 3690326.587 -14395942.737 20730648.145 10 0 60434 51300.00000 0 5623550.120 -15916365.443 19118491.610 10 0 60434 52200.00000 0 7272079.626 -17431004.784 17134852.965 10 0 60434 53100.00000 0 8615702.901 -18878026.420 14818146.098 10 0 60434 54000.00000 0 9646991.190 -20194787.124 12213295.609 10 0 60434 54900.00000 0 10371354.348 -21320476.007 9370870.716 10 0 60434 55800.00000 0 10806557.596 -22198702.014 6346105.223 10 0 60434 56700.00000 0 10981720.347 -22779918.022 3197822.344 10 0 60434 57600.00000 0 10935839.713 -23023578.274 -12714.550 10 0 60434 58500.00000 0 10715901.703 -22899936.776 -3223002.226 10 0 60434 59400.00000 0 10374660.923 -22391409.335 -6370524.610 10 0 60434 60300.00000 0 9968183.981 -21493440.393 -9393981.441 10 0 60434 61200.00000 0 9553262.050 -20214836.876 -12234493.243 10 0 60434 62100.00000 0 9184803.627 -18577554.173 -14836757.929 10 0 60434 63000.00000 0 8913319.357 -16615942.670 -17150135.413 10 0 60434 63900.00000 0 8782606.633 -14375486.392 -19129638.313 10 0 60434 64800.00000 0 8827732.889 -11911086.765 -20736809.049 10 0 60434 65700.00000 0 9073403.493 -9284963.688 -21940466.255 10 0 60434 66600.00000 0 9532783.474 -6564262.041 -22717306.264 10 0 60434 67500.00000 0 10206822.784 -3818463.841 -23052348.612 10 0 60434 68400.00000 0 11084113.330 -1116713.959 -22939217.692 10 0 60434 69300.00000 0 12141283.413 1474829.412 -22380255.970 10 0 60434 70200.00000 0 13343912.531 3895509.890 -21386467.482 10 0 60434 71100.00000 0 14647927.730 6092450.015 -19977293.487 10 0 60434 72000.00000 0 16001422.444 8022496.883 -18180225.335 10 0 60434 72900.00000 0 17346821.273 9653757.028 -16030262.564 10 0 60434 73800.00000 0 18623299.702 10966658.477 -13569227.097 10 0 60434 74700.00000 0 19769357.235 11954497.765 -10844947.080 10 0 60434 75600.00000 0 20725436.103 12623451.137 -7910326.313 10 0 60434 76500.00000 0 21436475.802 12992051.479 -4822317.308 10 0 60434 77400.00000 0 21854296.656 13090154.858 -1640817.944 10 0 60434 78300.00000 0 21939712.510 12957441.468 1572487.031 10 0 60434 79200.00000 0 21664284.152 12641515.267 4755317.378 10 0 60434 80100.00000 0 21011640.139 12195683.184 7845998.680 10 0 60434 81000.00000 0 19978309.687 11676507.878 10784650.663 10 0 60434 81900.00000 0 18574032.572 11141237.253 13514339.954 10 0 60434 82800.00000 0 16821532.642 10645218.867 15982175.476 10 0 60434 83700.00000 0 14755763.762 10239407.828 18140325.945 10 0 60434 84600.00000 0 12422658.728 9968072.725 19946940.485 10 0 60434 85500.00000 0 9877432.130 9866795.777 21366955.247 10 0 60435 0.00000 0 7182506.649 9960851.156 22372770.986 10 0 60435 900.00000 0 4405145.999 10264029.827 22944789.443 10 0 60435 1800.00000 0 1614894.892 10777960.589 23071797.081 10 0 60435 2700.00000 0 -1119074.062 11491956.819 22751190.503 10 0 60435 3600.00000 0 -3730594.232 12383396.466 21989037.278 10 0 60435 4500.00000 0 -6159012.853 13418620.800 20799970.867 10 0 60435 5400.00000 0 -8351469.405 14554315.767 19206920.503 10 0 60435 6300.00000 0 -10264850.305 15739319.480 17240680.002 10 0 60435 7200.00000 0 -11867338.758 16916781.234 14939322.553 10 0 60435 8100.00000 0 -13139495.152 18026582.236 12347471.575 10 0 60435 9000.00000 0 -14074822.751 19007916.702 9515440.736 10 0 60435 9900.00000 0 -14679794.844 19801924.537 6498259.154 10 0 60435 10800.00000 0 -14973342.223 20354264.044 3354600.427 10 0 60435 11700.00000 0 -14985822.742 20617515.112 145636.462 10 0 60435 12600.00000 0 -14757516.876 20553310.009 -3066160.939 10 0 60435 13500.00000 0 -14336713.571 20134100.272 -6218246.456 10 0 60435 14400.00000 0 -13777468.386 19344483.458 -9249230.497 10 0 60435 15300.00000 0 -13137130.039 18182032.332 -12100086.020 10 0 60435 16200.00000 0 -12473741.442 16657590.248 -14715308.124 10 0 60435 17100.00000 0 -11843426.598 14795019.435 -17044002.801 10 0 60435 18000.00000 0 -11297875.143 12630412.178 -19040882.757 10 0 60435 18900.00000 0 -10882031.875 10210797.806 -20667150.552 10 0 60435 19800.00000 0 -10632089.518 7592399.633 -21891251.804 10 0 60435 20700.00000 0 -10573869.725 4838514.955 -22689484.080 10 0 60435 21600.00000 0 -10721660.499 2017106.770 -23046450.269 10 0 60435 22500.00000 0 -11077558.627 -801792.316 -22955348.390 10 0 60435 23400.00000 0 -11631344.177 -3548756.017 -22418093.111 10 0 60435 24300.00000 0 -12360891.594 -6157609.203 -21445267.519 10 0 60435 25200.00000 0 -13233099.325 -8567932.470 -20055906.877 10 0 60435 26100.00000 0 -14205298.152 -10727323.307 -18277119.285 10 0 60435 27000.00000 0 -15227078.454 -12593321.249 -16143551.100 10 0 60435 27900.00000 0 -16242459.132 -14134918.545 -13696707.877 10 0 60435 28800.00000 0 -17192306.770 -15333595.191 -10984144.229 10 0 60435 29700.00000 0 -18016903.174 -16183837.104 -8058538.421 10 0 60435 30600.00000 0 -18658553.459 -16693117.813 -4976669.711 10 0 60435 31500.00000 0 -19064125.087 -16881346.195 -1798318.235 10 0 60435 32400.00000 0 -19187411.251 -16779805.030 1414891.344 10 0 60435 33300.00000 0 -18991219.504 -16429626.379 4600680.111 10 0 60435 34200.00000 0 -18449097.895 -15879868.781 7697316.259 10 0 60435 35100.00000 0 -17546626.184 -15185277.862 10644804.553 10 0 60435 36000.00000 0 -16282217.783 -14403824.817 13386041.298 10 0 60435 36900.00000 0 -14667398.341 -13594126.280 15867912.978 10 0 60435 37800.00000 0 -12726548.643 -12812853.805 18042317.937 10 0 60435 38700.00000 0 -10496121.515 -12112241.447 19867092.100 10 0 60435 39600.00000 0 -8023364.187 -11537795.670 21306821.477 10 0 60435 40500.00000 0 -5364597.748 -11126303.356 22333526.413 10 0 60435 41400.00000 0 -2583123.602 -10904221.249 22927204.839 10 0 60435 42300.00000 0 253157.894 -10886514.479 23076224.217 10 0 60435 43200.00000 0 3074319.465 -11075993.197 22777554.554 10 0 60435 44100.00000 0 5811064.565 -11463175.856 22036837.547 10 0 60435 45000.00000 0 8397361.637 -12026685.846 20868289.742 10 0 60435 45900.00000 0 10772946.720 -12734165.996 19294440.555 10 0 60435 46800.00000 0 12885591.086 -13543673.824 17345708.951 10 0 60435 47700.00000 0 14693039.834 -14405500.029 15059825.657 10 0 60435 48600.00000 0 16164540.703 -15264334.649 12481110.869 10 0 60435 49500.00000 0 17281899.062 -16061690.225 9659620.375 10 0 60435 50400.00000 0 18040014.644 -16738479.879 6650175.984 10 0 60435 51300.00000 0 18446877.279 -17237641.086 3511298.806 10 0 60435 52200.00000 0 18523021.784 -17506693.435 304066.222 10 0 60435 53100.00000 0 18300465.100 -17500120.993 -2909084.553 10 0 60435 54000.00000 0 17821171.073 -17181476.968 -6065582.100 10 0 60435 54900.00000 0 17135108.479 -16525120.053 -9103950.555 10 0 60435 55800.00000 0 16297985.496 -15517507.410 -11965018.170 10 0 60435 56700.00000 0 15368757.636 -14157988.224 -14593079.859 10 0 60435 57600.00000 0 14407015.835 -12459063.151 -16936990.017 10 0 60435 58500.00000 0 13470366.298 -10446097.832 -18951163.438 10 0 60435 59400.00000 0 12611913.800 -8156501.941 -20596464.450 10 0 60435 60300.00000 0 11877955.340 -5638407.890 -21840966.867 10 0 60435 61200.00000 0 11305981.677 -2948904.433 -22660570.275 10 0 60435 62100.00000 0 10923070.876 -151898.992 -23039461.241 10 0 60435 63000.00000 0 10744740.941 2684302.154 -22970411.283 10 0 60435 63900.00000 0 10774309.044 5489595.074 -22454906.707 10 0 60435 64800.00000 0 11002783.221 8194752.845 -21503108.674 10 0 60435 65700.00000 0 11409289.996 10734063.018 -20133645.106 10 0 60435 66600.00000 0 11962018.804 13047819.011 -18373239.159 10 0 60435 67500.00000 0 12619642.481 15084562.953 -16256182.013 10 0 60435 68400.00000 0 13333153.219 16802988.036 -13823660.559 10 0 60435 69300.00000 0 14048036.099 18173422.679 -11122953.306 10 0 60435 70200.00000 0 14706688.256 19178836.334 -8206510.198 10 0 60435 71100.00000 0 15250981.645 19815326.761 -5130934.230 10 0 60435 72000.00000 0 15624861.398 20092070.110 -1955884.639 10 0 60435 72900.00000 0 15776870.468 20030737.556 1257077.152 10 0 60435 73800.00000 0 15662494.257 19664404.165 4445676.676 10 0 60435 74700.00000 0 15246226.648 19035997.013 7548127.747 10 0 60435 75600.00000 0 14503270.687 18196348.588 10504322.953 10 0 60435 76500.00000 0 13420802.124 17201937.504 13256990.798 10 0 60435 77400.00000 0 11998742.470 16112411.551 15752797.544 10 0 60435 78300.00000 0 10250008.451 14987996.872 17943373.086 10 0 60435 79200.00000 0 8200226.427 13886901.554 19786241.756 10 0 60435 80100.00000 0 5886922.400 12862821.989 21245640.728 10 0 60435 81000.00000 0 3358219.816 11962655.962 22293210.859 10 0 60435 81900.00000 0 671097.528 11224517.746 22908547.110 10 0 60435 82800.00000 0 -2110721.511 10676138.055 23079598.130 10 0 60435 83700.00000 0 -4919165.077 10333715.757 22802907.222 10 0 60435 84600.00000 0 -7684392.449 10201269.672 22083689.651 10 0 60435 85500.00000 0 -10337455.536 10270518.120 20935744.015 99